timestamp,wind_dir_avg,wind_spd_avg,wind_spd_max_dir,wind_spd_gust,battery_voltage,lat,long
2023-12-16 00:04:00+00:00,232.0,14.12,240.0,17.96,12.33,47.59359,-54.27349
2023-12-16 00:14:00+00:00,235.0,13.7,242.0,16.66,12.33,47.59359,-54.27349
2023-12-16 00:24:00+00:00,234.0,13.19,245.0,16.9,12.33,47.59359,-54.27349
2023-12-16 00:34:00+00:00,234.0,14.01,238.0,18.67,12.33,47.59359,-54.27349
2023-12-16 00:44:00+00:00,243.0,14.84,249.0,18.19,12.33,47.59359,-54.27349
2023-12-16 00:54:00+00:00,234.0,12.26,235.0,14.57,12.33,47.59359,-54.27349
2023-12-16 01:04:00+00:00,244.0,10.74,247.0,12.75,12.33,47.59359,-54.27349
2023-12-16 01:14:00+00:00,244.0,10.37,245.0,12.0,12.33,47.59359,-54.27349
2023-12-16 01:24:00+00:00,240.0,9.6,241.0,11.25,12.33,47.59359,-54.27349
2023-12-16 01:34:00+00:00,232.0,9.34,235.0,10.89,12.33,47.59359,-54.27349
2023-12-16 01:44:00+00:00,233.0,7.83,234.0,9.2,12.33,47.59359,-54.27349
2023-12-16 01:54:00+00:00,231.0,7.99,235.0,9.2,12.33,47.59359,-54.27349
2023-12-16 02:04:00+00:00,238.0,7.52,246.0,8.45,12.33,47.59359,-54.27349
2023-12-16 02:14:00+00:00,234.0,8.01,234.0,8.93,12.25,47.59359,-54.27349
2023-12-16 02:24:00+00:00,242.0,7.58,241.0,8.19,12.25,47.59359,-54.27349
2023-12-16 02:34:00+00:00,251.0,8.18,240.0,9.97,12.25,47.59359,-54.27349
2023-12-16 02:44:00+00:00,255.0,9.16,255.0,12.04,12.25,47.59359,-54.27349
2023-12-16 02:54:00+00:00,257.0,8.55,252.0,9.69,12.25,47.59359,-54.27349
2023-12-16 03:04:00+00:00,257.0,10.48,255.0,11.75,12.25,47.59359,-54.27349
2023-12-16 03:14:00+00:00,261.0,8.53,256.0,10.22,12.25,47.59359,-54.27349
2023-12-16 03:24:00+00:00,252.0,8.86,248.0,11.21,12.25,47.59359,-54.27349
2023-12-16 03:34:00+00:00,231.0,8.0,229.0,9.16,12.25,47.59359,-54.27349
2023-12-16 03:44:00+00:00,246.0,11.08,248.0,13.22,12.25,47.59359,-54.27349
2023-12-16 03:54:00+00:00,261.0,9.65,264.0,10.87,12.25,47.59359,-54.27349
2023-12-16 04:04:00+00:00,267.0,6.44,266.0,8.13,12.25,47.59359,-54.27349
2023-12-16 04:14:00+00:00,266.0,9.14,266.0,10.72,12.25,47.59359,-54.27349
2023-12-16 04:24:00+00:00,273.0,8.72,276.0,10.43,12.25,47.59359,-54.27349
2023-12-16 04:34:00+00:00,257.0,7.34,254.0,8.15,12.25,47.59359,-54.27349
2023-12-16 04:44:00+00:00,260.0,7.74,260.0,9.78,12.25,47.59359,-54.27349
2023-12-16 04:54:00+00:00,266.0,7.73,271.0,9.73,12.25,47.59359,-54.27349
2023-12-16 05:04:00+00:00,264.0,9.54,263.0,10.39,12.25,47.59359,-54.27349
2023-12-16 05:14:00+00:00,258.0,8.51,260.0,10.12,12.17,47.59359,-54.27349
2023-12-16 05:24:00+00:00,255.0,8.58,257.0,10.34,12.17,47.59359,-54.27349
2023-12-16 05:34:00+00:00,260.0,8.19,260.0,10.22,12.17,47.59359,-54.27349
2023-12-16 05:44:00+00:00,243.0,7.77,251.0,10.39,12.17,47.59359,-54.27349
2023-12-16 05:54:00+00:00,246.0,8.94,250.0,10.54,12.17,47.59359,-54.27349
2023-12-16 06:04:00+00:00,246.0,8.86,248.0,10.53,12.17,47.59359,-54.27349
2023-12-16 06:14:01+00:00,237.0,8.5,247.0,10.49,12.17,47.59359,-54.27349
2023-12-16 06:24:01+00:00,238.0,9.19,238.0,10.37,12.17,47.59359,-54.27349
2023-12-16 06:34:01+00:00,244.0,7.87,244.0,9.58,12.17,47.59359,-54.27349
2023-12-16 06:44:01+00:00,249.0,7.78,251.0,9.52,12.17,47.59359,-54.27349
2023-12-16 06:54:01+00:00,255.0,7.78,261.0,9.21,12.17,47.59359,-54.27349
2023-12-16 07:04:01+00:00,262.0,9.46,265.0,11.27,12.17,47.59359,-54.27349
2023-12-16 07:14:00+00:00,257.0,8.55,257.0,9.91,12.09,47.59359,-54.27349
2023-12-16 07:24:00+00:00,270.0,8.38,266.0,10.47,12.09,47.59359,-54.27349
2023-12-16 07:34:00+00:00,255.0,8.3,254.0,9.08,12.09,47.59359,-54.27349
2023-12-16 07:44:00+00:00,252.0,6.99,254.0,8.33,12.09,47.59359,-54.27349
2023-12-16 07:54:00+00:00,249.0,6.51,255.0,7.64,12.09,47.59359,-54.27349
2023-12-16 08:04:00+00:00,237.0,8.22,239.0,9.03,12.09,47.59359,-54.27349
2023-12-16 08:14:00+00:00,235.0,8.4,234.0,9.86,12.09,47.59359,-54.27349
2023-12-16 08:24:00+00:00,244.0,8.53,238.0,9.59,12.09,47.59359,-54.27349
2023-12-16 08:34:00+00:00,244.0,8.6,250.0,10.09,12.09,47.59359,-54.27349
2023-12-16 08:44:00+00:00,247.0,9.26,243.0,10.76,12.09,47.59359,-54.27349
2023-12-16 08:54:00+00:00,252.0,8.11,250.0,9.02,12.09,47.59359,-54.27349
2023-12-16 09:04:00+00:00,255.0,9.8,255.0,10.97,12.09,47.59359,-54.27349
2023-12-16 09:14:00+00:00,258.0,7.25,261.0,8.63,12.09,47.59359,-54.27349
2023-12-16 09:24:00+00:00,268.0,6.91,273.0,8.12,12.09,47.59359,-54.27349
2023-12-16 09:34:00+00:00,252.0,6.86,251.0,7.72,12.09,47.59359,-54.27349
2023-12-16 09:44:00+00:00,255.0,7.94,256.0,9.42,12.09,47.59359,-54.27349
2023-12-16 09:54:00+00:00,236.0,7.71,238.0,8.7,12.09,47.59359,-54.27349
2023-12-16 10:04:00+00:00,239.0,7.73,234.0,8.65,12.09,47.59359,-54.27349
2023-12-16 10:14:00+00:00,244.0,9.18,243.0,10.86,12.09,47.59359,-54.27349
2023-12-16 10:24:00+00:00,240.0,8.38,243.0,9.5,12.09,47.59359,-54.27349
2023-12-16 10:34:00+00:00,237.0,10.49,238.0,12.03,12.09,47.59359,-54.27349
2023-12-16 10:44:00+00:00,246.0,8.61,242.0,10.53,12.09,47.59359,-54.27349
2023-12-16 10:54:00+00:00,234.0,8.09,240.0,8.87,12.09,47.59359,-54.27349
2023-12-16 11:04:00+00:00,242.0,10.49,241.0,12.1,12.09,47.59359,-54.27349
2023-12-16 11:14:00+00:00,240.0,10.63,238.0,12.32,12.09,47.59359,-54.27349
2023-12-16 11:24:00+00:00,241.0,9.47,250.0,11.38,12.09,47.59359,-54.27349
2023-12-16 11:34:00+00:00,249.0,11.27,249.0,13.14,12.09,47.59359,-54.27349
2023-12-16 11:44:00+00:00,244.0,10.61,245.0,12.48,12.09,47.59359,-54.27349
2023-12-16 11:54:00+00:00,244.0,10.06,243.0,12.1,12.09,47.59359,-54.27349
2023-12-16 12:04:00+00:00,249.0,9.85,249.0,11.58,12.09,47.59359,-54.27349
2023-12-16 12:14:00+00:00,252.0,9.38,250.0,10.98,12.09,47.59359,-54.27349
2023-12-16 12:24:00+00:00,249.0,10.71,256.0,12.28,12.09,47.59359,-54.27349
2023-12-16 12:34:00+00:00,258.0,8.55,249.0,10.06,12.09,47.59359,-54.27349
2023-12-16 12:44:00+00:00,263.0,9.55,259.0,11.69,12.09,47.59359,-54.27349
2023-12-16 12:54:00+00:00,257.0,10.75,257.0,12.01,12.09,47.59359,-54.27349
2023-12-16 13:04:00+00:00,244.0,7.97,246.0,8.88,12.09,47.59359,-54.27349
2023-12-16 13:14:00+00:00,260.0,8.47,263.0,10.94,12.57,47.59359,-54.27349
2023-12-16 13:24:00+00:00,272.0,7.9,275.0,9.12,12.57,47.59359,-54.27349
2023-12-16 13:34:00+00:00,281.0,11.06,287.0,12.49,12.57,47.59359,-54.27349
2023-12-16 13:44:00+00:00,279.0,12.78,280.0,16.31,12.57,47.59359,-54.27349
2023-12-16 13:54:00+00:00,278.0,10.14,274.0,12.44,12.57,47.59359,-54.27349
2023-12-16 14:04:00+00:00,276.0,14.04,279.0,18.4,12.57,47.59359,-54.27349
2023-12-16 14:14:00+00:00,287.0,10.24,295.0,12.44,14.24,47.59359,-54.27349
2023-12-16 14:24:00+00:00,295.0,10.87,289.0,16.98,14.24,47.59359,-54.27349
2023-12-16 14:34:00+00:00,295.0,14.1,296.0,19.15,14.24,47.59359,-54.27349
2023-12-16 14:44:00+00:00,293.0,16.59,291.0,19.61,14.24,47.59359,-54.27349
2023-12-16 14:54:00+00:00,281.0,12.21,271.0,16.58,14.24,47.59359,-54.27349
2023-12-16 15:04:00+00:00,288.0,9.71,286.0,11.51,14.24,47.59359,-54.27349
2023-12-16 15:14:00+00:00,293.0,10.17,297.0,11.83,13.44,47.59359,-54.27349
2023-12-16 15:24:00+00:00,293.0,13.76,296.0,19.02,13.44,47.59359,-54.27349
2023-12-16 15:34:00+00:00,292.0,15.78,290.0,19.76,13.44,47.59359,-54.27349
2023-12-16 15:44:00+00:00,290.0,17.44,291.0,20.07,13.44,47.59359,-54.27349
2023-12-16 15:54:00+00:00,294.0,16.26,301.0,21.13,13.44,47.59359,-54.27349
2023-12-16 16:04:00+00:00,299.0,18.23,302.0,21.03,13.44,47.59359,-54.27349
2023-12-16 16:14:00+00:00,304.0,11.74,309.0,14.32,13.68,47.59359,-54.27349
2023-12-16 16:24:00+00:00,303.0,12.77,292.0,15.67,13.68,47.59359,-54.27349
2023-12-16 16:34:00+00:00,336.0,11.93,330.0,13.01,13.68,47.59359,-54.27349
2023-12-16 16:44:00+00:00,315.0,11.03,312.0,12.7,13.68,47.59359,-54.27349
2023-12-16 16:54:00+00:00,323.0,11.95,320.0,14.09,13.68,47.59359,-54.27349
2023-12-16 17:04:00+00:00,319.0,11.94,319.0,13.97,13.68,47.59359,-54.27349
2023-12-16 17:14:00+00:00,307.0,10.21,308.0,12.36,13.21,47.59359,-54.27349
2023-12-16 17:24:00+00:00,304.0,10.55,302.0,12.1,13.21,47.59359,-54.27349
2023-12-16 17:34:00+00:00,309.0,10.35,310.0,12.9,13.21,47.59359,-54.27349
2023-12-16 17:44:00+00:00,311.0,10.05,311.0,12.97,13.21,47.59359,-54.27349
2023-12-16 17:54:00+00:00,321.0,13.11,326.0,14.62,13.21,47.59359,-54.27349
2023-12-16 18:04:00+00:00,314.0,10.52,312.0,13.22,13.21,47.59359,-54.27349
2023-12-16 18:14:00+00:00,318.0,12.42,316.0,15.95,13.44,47.59359,-54.27349
2023-12-16 18:24:00+00:00,319.0,14.97,322.0,17.35,13.44,47.59359,-54.27349
2023-12-16 18:34:00+00:00,316.0,13.1,318.0,17.26,13.44,47.59359,-54.27349
2023-12-16 18:44:00+00:00,324.0,14.74,324.0,17.32,13.44,47.59359,-54.27349
2023-12-16 18:54:00+00:00,311.0,11.26,304.0,13.73,13.44,47.59359,-54.27349
2023-12-16 19:04:00+00:00,322.0,13.07,325.0,14.86,13.44,47.59359,-54.27349
2023-12-16 19:14:00+00:00,319.0,12.91,318.0,14.93,13.6,47.59359,-54.27349
2023-12-16 19:24:00+00:00,316.0,14.86,321.0,17.35,13.6,47.59359,-54.27349
2023-12-16 19:34:00+00:00,309.0,10.75,317.0,12.89,13.6,47.59359,-54.27349
2023-12-16 19:44:00+00:00,314.0,10.94,312.0,12.71,13.6,47.59359,-54.27349
2023-12-16 19:54:00+00:00,317.0,9.53,324.0,12.13,13.6,47.59359,-54.27349
2023-12-16 20:04:00+00:00,313.0,10.2,321.0,15.12,13.6,47.59359,-54.27349
2023-12-16 20:14:00+00:00,317.0,12.14,325.0,15.21,12.57,47.59359,-54.27349
2023-12-16 20:24:00+00:00,314.0,9.59,308.0,10.48,12.57,47.59359,-54.27349
2023-12-16 20:34:00+00:00,313.0,8.73,323.0,11.95,12.57,47.59359,-54.27349
2023-12-16 20:44:00+00:00,310.0,8.28,307.0,11.23,12.57,47.59359,-54.27349
2023-12-16 20:54:00+00:00,304.0,10.31,296.0,12.7,12.57,47.59359,-54.27349
2023-12-16 21:04:00+00:00,321.0,10.48,331.0,12.21,12.57,47.59359,-54.27349
2023-12-16 21:14:00+00:00,309.0,10.84,309.0,13.08,12.41,47.59359,-54.27349
2023-12-16 21:24:00+00:00,303.0,8.93,302.0,12.01,12.41,47.59359,-54.27349
2023-12-16 21:34:00+00:00,323.0,9.77,322.0,12.95,12.41,47.59359,-54.27349
2023-12-16 21:44:00+00:00,331.0,13.64,329.0,15.9,12.41,47.59359,-54.27349
2023-12-16 21:54:00+00:00,315.0,15.28,311.0,18.64,12.41,47.59359,-54.27349
2023-12-16 22:04:00+00:00,313.0,11.84,301.0,16.12,12.41,47.59359,-54.27349
2023-12-16 22:14:00+00:00,299.0,14.01,303.0,16.76,12.41,47.59359,-54.27349
2023-12-16 22:24:00+00:00,308.0,13.69,307.0,16.68,12.41,47.59359,-54.27349
2023-12-16 22:34:00+00:00,316.0,10.92,305.0,13.36,12.41,47.59359,-54.27349
2023-12-16 22:44:00+00:00,323.0,10.58,321.0,12.71,12.41,47.59359,-54.27349
2023-12-16 22:54:00+00:00,318.0,11.9,300.0,16.63,12.41,47.59359,-54.27349
2023-12-16 23:04:00+00:00,309.0,12.44,303.0,17.03,12.41,47.59359,-54.27349
2023-12-16 23:14:00+00:00,326.0,12.03,328.0,14.01,12.33,47.59359,-54.27349
2023-12-16 23:24:00+00:00,306.0,14.25,302.0,16.71,12.33,47.59359,-54.27349
2023-12-16 23:34:00+00:00,316.0,11.45,302.0,15.43,12.33,47.59359,-54.27349
2023-12-16 23:44:00+00:00,315.0,9.1,303.0,11.0,12.33,47.59359,-54.27349
2023-12-16 23:54:00+00:00,311.0,8.39,326.0,10.18,12.33,47.59359,-54.27349
